Skip Page Navigation
NASA JPL Caltech
NASA Logo - Jet Propulsion Laboratory + View the NASA Portal
+ Center for Near-Earth Object Studies
JPL Home Earth Solar System Stars & Galaxies Technology
JPL Solar System Dynamics
BODIES ORBITS EPHEMERIDES TOOLS PHYSICAL DATA DISCOVERY FAQ SITE MAP
JPL Small-Body Database Browser
Search: [ help ]  
103560 Peate (2000 BZ31)
Classification: Main-belt Asteroid          SPK-ID: 2103560
Ephemeris | Orbit Diagram | Orbital Elements | Mission Design | Physical Parameters | Discovery Circumstances | Close-Approach Data ]

[ show orbit diagram ]
Orbital Elements at Epoch 2459200.5 (2020-Dec-17.0) TDB
Reference: JPL 20 (heliocentric ecliptic J2000)
 Element Value Uncertainty (1-sigma)   Units 
e .1346960727373952 4.1753e-08  
a 2.393767515720409 1.0634e-08 au
q 2.07133643230652 9.6674e-08 au
i 5.650088042001966 3.5716e-06 deg
node 281.0449078385155 5.817e-05 deg
peri 11.95343918836269 6.1934e-05 deg
M 74.66209269704891 2.1106e-05 deg
tp 2458919.944337610401
(2020-Mar-11.44433761)
7.911e-05 TDB
period 1352.761954718792
3.70
9.0142e-06
2.468e-08
d
yr
n .26612220926544 1.7733e-09 deg/d
Q 2.716198599134299 1.2066e-08 au
  Orbit Determination Parameters
   # obs. used (total)      968  
   data-arc span      7630 days (20.89 yr)  
   first obs. used      2000-01-30  
   last obs. used      2020-12-20  
   planetary ephem.      DE431  
   SB-pert. ephem.      SB431-N16  
   condition code      0  
   norm. resid. RMS      .53518  
   source      ORB  
   producer      Otto Matic  
   solution date      2021-Feb-24 08:35:02  

Additional Information
 Earth MOID = 1.05357 au 
 Jupiter MOID = 2.4501 au 
 T_jup = 3.511 
[ show covariance matrix ]

Ephemeris | Orbit Diagram | Orbital Elements | Mission Design | Physical Parameters | Discovery Circumstances | Close-Approach Data ]

Physical Parameter Table
Parameter Symbol Value Units Sigma Reference Notes
absolute magnitude H 15.66   n/a E2021B55  

103560 Peate           Discovered 2000 Jan. 30 by the Catalina Sky Survey.
John Peate (1820-1902) was an amateur optician who fabricated large telescope mirrors in the late 19th century, culminating with a 62 " mirror in 1897, then the largest in the world. That mirror is now kept in the collections of the Smithsonian Institution, National Museum of American History in Washington DC.
NOTE: some special characters may not display properly (any characters within {} are an attempt to place the proper accent above a character)
Reference: MPC batch dated 2019-12-12Last Updated: 2019-12-13

[ show close-approach data ]
Alternate Designations
 2000 BZ31 = 2002 VG108 
Ephemeris | Orbit Diagram | Orbital Elements | Mission Design | Physical Parameters | Discovery Circumstances | Close-Approach Data ]
ABOUT SSD CREDITS/AWARDS PRIVACY/COPYRIGHT GLOSSARY LINKS
FirstGov 2021-Mar-05 02:25 UT
(server date/time)  
NASA Home Page
Site Manager:   Ryan S. Park
Webmaster  Alan B. Chamberlin